Location: Unspecified
(40.6839°N, 0.0000°E)
Time: 19:31:27
(UTC+00:00)

Landsat 2 Rocket - Visible Passes

Search period start: 04 April 2026 00:00
Search period end: 14 April 2026 00:00
Orbit: 697 x 762 km, 97.9° (Epoch: 28 March)

Date Brightness Start Highest point End Pass type
(mag) Time Alt. Az. Time Alt. Az. Time Alt. Az.
4 Apr 6.6 20:47:53 21° NE 20:47:53 21° NE 20:50:29 10° NNE visible
4 Apr 7.2 22:27:20 22° NW 22:27:20 22° NW 22:29:18 10° NNW visible
5 Apr 6.3 21:39:32 34° N 21:39:32 34° N 21:42:22 10° N visible
6 Apr 6.5 20:51:44 23° NE 20:51:44 23° NE 20:54:34 10° NNE visible
6 Apr 7.2 22:31:11 22° NW 22:31:11 22° NW 22:33:12 10° NNW visible
7 Apr 6.2 21:43:23 37° N 21:43:23 37° N 21:46:22 10° N visible
8 Apr 6.4 20:55:34 26° NE 20:55:34 26° NE 20:58:39 10° N visible
8 Apr 7.1 22:35:02 22° NW 22:35:02 22° NW 22:37:06 10° NNW visible
9 Apr 7.1 20:07:47 11° ENE 20:07:47 11° ENE 20:08:59 10° NE visible
9 Apr 6.1 21:47:13 39° N 21:47:13 39° N 21:50:21 10° NNW visible
10 Apr 6.2 20:59:25 28° NE 20:59:25 28° NE 21:02:43 10° N visible
10 Apr 7.1 22:38:52 21° NW 22:38:52 21° NW 22:40:59 10° NW visible
11 Apr 7.0 20:11:37 12° ENE 20:11:42 12° ENE 20:13:30 10° NE visible
11 Apr 6.0 21:51:04 41° NNW 21:51:04 41° NNW 21:54:19 10° NNW visible
12 Apr 6.1 21:03:16 31° NE 21:03:16 31° NE 21:06:45 10° N visible
12 Apr 7.2 22:42:43 20° WNW 22:42:43 20° WNW 22:44:50 10° NW visible
13 Apr 6.9 20:15:28 13° ENE 20:15:37 13° ENE 20:17:50 10° NE visible
13 Apr 6.0 21:54:55 43° NNW 21:54:55 43° NNW 21:58:16 10° NNW visible
